TimeCDT,TemperatureF,Dew PointF,Humidity,Sea Level PressureIn,VisibilityMPH,Wind Direction,Wind SpeedMPH,Gust SpeedMPH,PrecipitationIn,Events,Conditions,WindDirDegrees,DateUTC
12:15 AM,53.6,51.8,94,30.06,5.0,SSW,4.6,-,N/A,,Scattered Clouds,210,2012-10-04 05:15:00
12:35 AM,53.6,51.8,94,30.06,10.0,South,3.5,-,N/A,,Scattered Clouds,190,2012-10-04 05:35:00
12:55 AM,51.8,51.8,100,30.07,10.0,SSW,3.5,-,N/A,,Clear,200,2012-10-04 05:55:00
1:15 AM,51.8,51.8,100,30.07,10.0,SW,4.6,-,N/A,,Clear,220,2012-10-04 06:15:00
1:35 AM,51.8,51.8,100,30.08,10.0,SSW,3.5,-,N/A,,Clear,200,2012-10-04 06:35:00
1:55 AM,53.6,51.8,94,30.08,10.0,WSW,5.8,-,N/A,,Scattered Clouds,240,2012-10-04 06:55:00
2:15 AM,53.6,51.8,94,30.09,10.0,SW,5.8,-,N/A,,Scattered Clouds,220,2012-10-04 07:15:00
2:35 AM,53.6,51.8,94,30.09,10.0,Calm,Calm,-,N/A,,Overcast,0,2012-10-04 07:35:00
2:55 AM,55.4,51.8,88,30.09,10.0,SW,5.8,-,N/A,,Overcast,220,2012-10-04 07:55:00
3:15 AM,53.6,51.8,94,30.09,10.0,SW,4.6,-,N/A,,Overcast,230,2012-10-04 08:15:00
3:35 AM,53.6,53.6,100,30.09,10.0,Calm,Calm,-,N/A,,Overcast,0,2012-10-04 08:35:00
3:55 AM,53.6,51.8,94,30.09,10.0,Calm,Calm,-,N/A,,Overcast,0,2012-10-04 08:55:00
4:15 AM,53.6,51.8,94,30.09,10.0,Calm,Calm,-,N/A,,Mostly Cloudy,0,2012-10-04 09:15:00
4:35 AM,53.6,53.6,100,30.09,10.0,Calm,Calm,-,N/A,,Mostly Cloudy,0,2012-10-04 09:35:00
4:55 AM,53.6,53.6,100,30.09,10.0,Calm,Calm,-,N/A,Rain,Rain,0,2012-10-04 09:55:00
5:15 AM,55.4,53.6,94,30.09,10.0,SSW,4.6,-,N/A,,Overcast,210,2012-10-04 10:15:00
5:35 AM,55.4,53.6,94,30.09,10.0,Calm,Calm,-,N/A,,Overcast,0,2012-10-04 10:35:00
5:55 AM,55.4,53.6,94,30.10,10.0,SSW,3.5,-,N/A,,Overcast,200,2012-10-04 10:55:00
6:15 AM,53.6,51.8,94,30.09,10.0,South,3.5,-,N/A,,Overcast,190,2012-10-04 11:15:00
6:35 AM,53.6,53.6,100,30.09,10.0,South,5.8,-,N/A,,Scattered Clouds,190,2012-10-04 11:35:00
6:55 AM,53.6,53.6,100,30.10,10.0,South,5.8,-,N/A,,Clear,190,2012-10-04 11:55:00
7:15 AM,53.6,53.6,100,30.10,10.0,South,4.6,-,N/A,,Clear,190,2012-10-04 12:15:00
7:35 AM,55.4,53.6,94,30.10,10.0,SSW,5.8,-,N/A,,Clear,200,2012-10-04 12:35:00
7:55 AM,55.4,53.6,94,30.11,10.0,South,6.9,-,N/A,,Clear,190,2012-10-04 12:55:00
8:15 AM,57.2,55.4,94,30.11,10.0,SSW,6.9,-,N/A,,Clear,200,2012-10-04 13:15:00
8:35 AM,59.0,55.4,88,30.12,10.0,SSW,9.2,-,N/A,,Clear,200,2012-10-04 13:35:00
8:55 AM,60.8,57.2,88,30.11,10.0,SSW,9.2,-,N/A,,Clear,200,2012-10-04 13:55:00
9:15 AM,62.6,57.2,82,30.12,10.0,SSW,11.5,-,N/A,,Clear,210,2012-10-04 14:15:00
9:35 AM,64.4,59.0,83,30.11,10.0,South,6.9,-,N/A,,Clear,190,2012-10-04 14:35:00
9:55 AM,66.2,59.0,78,30.11,10.0,SSW,11.5,-,N/A,,Clear,200,2012-10-04 14:55:00
10:15 AM,68.0,57.2,68,30.11,10.0,SSW,10.4,-,N/A,,Clear,210,2012-10-04 15:15:00
10:35 AM,69.8,57.2,64,30.10,10.0,SSW,10.4,16.1,N/A,,Clear,200,2012-10-04 15:35:00
10:55 AM,69.8,57.2,64,30.10,10.0,SSW,11.5,-,N/A,,Clear,200,2012-10-04 15:55:00
11:15 AM,71.6,55.4,57,30.10,10.0,SSW,12.7,16.1,N/A,,Clear,200,2012-10-04 16:15:00
11:35 AM,73.4,57.2,57,30.09,10.0,SSW,13.8,17.3,N/A,,Clear,200,2012-10-04 16:35:00
11:55 AM,75.2,55.4,50,30.09,10.0,SSW,13.8,17.3,N/A,,Clear,200,2012-10-04 16:55:00
12:15 PM,77.0,53.6,44,30.08,10.0,SW,15.0,20.7,N/A,,Clear,220,2012-10-04 17:15:00
12:35 PM,77.0,51.8,41,30.07,10.0,SW,10.4,19.6,N/A,,Clear,220,2012-10-04 17:35:00
12:55 PM,78.8,51.8,39,30.06,10.0,SSW,10.4,21.9,N/A,,Clear,210,2012-10-04 17:55:00
1:15 PM,78.8,50.0,36,30.06,10.0,SW,15.0,25.3,N/A,,Clear,220,2012-10-04 18:15:00
1:35 PM,78.8,50.0,36,30.06,10.0,SW,16.1,21.9,N/A,,Clear,220,2012-10-04 18:35:00
1:55 PM,78.8,46.4,32,30.05,10.0,SW,20.7,27.6,N/A,,Scattered Clouds,220,2012-10-04 18:55:00
2:15 PM,78.8,48.2,34,30.05,10.0,SSW,17.3,27.6,N/A,,Mostly Cloudy,210,2012-10-04 19:15:00
2:35 PM,80.6,46.4,30,30.05,10.0,SW,19.6,25.3,N/A,,Mostly Cloudy,220,2012-10-04 19:35:00
2:55 PM,78.8,48.2,34,30.04,10.0,SSW,19.6,29.9,N/A,,Scattered Clouds,210,2012-10-04 19:55:00
3:15 PM,80.6,46.4,30,30.04,10.0,SW,15.0,25.3,N/A,,Scattered Clouds,220,2012-10-04 20:15:00
3:35 PM,80.6,48.2,32,30.03,10.0,SSW,17.3,25.3,N/A,,Clear,200,2012-10-04 20:35:00
3:55 PM,78.8,48.2,34,30.03,10.0,SW,16.1,26.5,N/A,,Scattered Clouds,220,2012-10-04 20:55:00
4:15 PM,78.8,48.2,34,30.03,10.0,SW,15.0,20.7,N/A,,Mostly Cloudy,220,2012-10-04 21:15:00
4:35 PM,78.8,48.2,34,30.02,10.0,SW,17.3,25.3,N/A,,Overcast,220,2012-10-04 21:35:00
4:55 PM,78.8,50.0,36,30.03,10.0,SSW,12.7,20.7,N/A,,Overcast,210,2012-10-04 21:55:00
5:15 PM,77.0,50.0,39,30.03,10.0,SSW,9.2,16.1,N/A,,Overcast,210,2012-10-04 22:15:00
5:35 PM,77.0,50.0,39,30.03,10.0,SSW,10.4,17.3,N/A,,Overcast,210,2012-10-04 22:35:00
5:55 PM,75.2,51.8,44,30.05,10.0,West,11.5,18.4,N/A,,Overcast,280,2012-10-04 22:55:00
6:15 PM,71.6,53.6,53,30.06,10.0,West,13.8,19.6,N/A,,Overcast,270,2012-10-04 23:15:00
6:35 PM,69.8,51.8,53,30.07,10.0,WNW,13.8,23.0,N/A,,Mostly Cloudy,290,2012-10-04 23:35:00
6:55 PM,64.4,50.0,59,30.08,10.0,WNW,10.4,21.9,N/A,,Mostly Cloudy,300,2012-10-04 23:55:00
7:15 PM,64.4,48.2,56,30.08,10.0,WNW,6.9,-,N/A,,Overcast,290,2012-10-05 00:15:00
7:35 PM,62.6,48.2,59,30.08,10.0,Calm,Calm,-,N/A,,Overcast,0,2012-10-05 00:35:00
8:15 PM,62.6,48.2,59,30.09,10.0,West,6.9,-,N/A,,Overcast,280,2012-10-05 01:15:00
8:35 PM,59.0,53.6,82,30.11,10.0,WNW,13.8,23.0,N/A,Rain,Rain,300,2012-10-05 01:35:00
9:15 PM,53.6,51.8,94,30.12,5.0,West,10.4,-,0.03,Rain-Thunderstorm,Heavy Thunderstorms and Rain,280,2012-10-05 02:15:00
9:35 PM,53.6,51.8,94,30.13,5.0,WSW,9.2,-,0.06,Rain-Thunderstorm,Thunderstorms and Rain,250,2012-10-05 02:35:00
9:55 PM,53.6,51.8,94,30.13,10.0,West,4.6,-,0.08,Rain-Thunderstorm,Rain,270,2012-10-05 02:55:00
10:15 PM,53.6,51.8,94,30.13,10.0,West,5.8,-,0.01,Rain,Light Rain,270,2012-10-05 03:15:00
10:35 PM,51.8,50.0,94,30.14,10.0,West,8.1,-,0.02,,Overcast,270,2012-10-05 03:35:00
10:55 PM,51.8,50.0,94,30.15,10.0,WSW,5.8,-,0.03,,Light Drizzle,250,2012-10-05 03:55:00
11:15 PM,51.8,50.0,94,30.14,10.0,WSW,5.8,-,N/A,,Overcast,250,2012-10-05 04:15:00
11:35 PM,51.8,50.0,94,30.14,10.0,WSW,5.8,-,0.01,,Overcast,250,2012-10-05 04:35:00
11:55 PM,51.8,50.0,94,30.14,10.0,West,5.8,-,0.01,,Overcast,260,2012-10-05 04:55:00